Time,TemperatureF,DewpointF,PressureIn,WindDirection,WindDirectionDegrees,WindSpeedMPH,WindSpeedGustMPH,Humidity,HourlyPrecipIn,Conditions,Clouds,dailyrainin,SoftwareType,DateUTC
2013-01-19 00:00:00,34.4,26.3,30.63,West,267,0.0,2.0,72,0.00,,,0.13,Wunderground v.1.15,2013-01-19 05:00:00,
2013-01-19 00:05:00,34.4,26.3,30.63,East,83,0.0,2.0,72,0.00,,,0.13,Wunderground v.1.15,2013-01-19 05:05:00,
2013-01-19 00:15:00,34.3,26.5,30.62,SSE,151,0.0,4.0,73,0.00,,,0.13,Wunderground v.1.15,2013-01-19 05:15:00,
2013-01-19 00:20:00,34.0,25.9,30.63,South,183,0.0,4.0,72,0.00,,,0.13,Wunderground v.1.15,2013-01-19 05:20:00,
2013-01-19 00:25:00,33.6,26.2,30.63,South,183,0.0,4.0,74,0.00,,,0.13,Wunderground v.1.15,2013-01-19 05:25:00,
2013-01-19 00:30:00,33.2,26.5,30.63,South,183,0.0,4.0,76,0.00,,,0.13,Wunderground v.1.15,2013-01-19 05:30:00,
2013-01-19 00:35:00,32.5,26.1,30.63,South,184,0.0,4.0,77,0.00,,,0.13,Wunderground v.1.15,2013-01-19 05:35:00,
2013-01-19 00:45:00,31.5,26.0,30.62,South,186,1.0,4.0,80,0.00,,,0.13,Wunderground v.1.15,2013-01-19 05:45:00,
2013-01-19 00:50:00,31.8,25.7,30.62,South,189,0.0,4.0,78,0.00,,,0.13,Wunderground v.1.15,2013-01-19 05:50:00,
2013-01-19 00:55:00,32.1,26.0,30.62,SSW,204,0.0,4.0,78,0.00,,,0.00,Wunderground v.1.15,2013-01-19 05:55:00,
2013-01-19 01:00:00,32.4,26.0,30.62,SSW,201,0.0,4.0,77,0.00,,,0.00,Wunderground v.1.15,2013-01-19 06:00:00,
2013-01-19 01:05:00,32.5,26.1,30.62,SSE,168,0.0,4.0,77,0.00,,,0.00,Wunderground v.1.15,2013-01-19 06:05:00,
2013-01-19 01:15:00,32.4,26.3,30.61,South,190,0.0,3.0,78,0.00,,,0.00,Wunderground v.1.15,2013-01-19 06:15:00,
2013-01-19 01:20:00,32.0,26.2,30.61,South,180,1.0,1.0,79,0.00,,,0.00,Wunderground v.1.15,2013-01-19 06:20:00,
2013-01-19 01:30:00,31.8,26.0,30.61,South,173,0.0,3.0,79,0.00,,,0.00,Wunderground v.1.15,2013-01-19 06:30:00,
2013-01-19 01:35:00,32.1,26.0,30.61,South,173,1.0,3.0,78,0.00,,,0.00,Wunderground v.1.15,2013-01-19 06:35:00,
2013-01-19 01:40:00,32.3,26.2,30.61,SSW,192,1.0,3.0,78,0.00,,,0.00,Wunderground v.1.15,2013-01-19 06:40:00,
2013-01-19 01:45:00,32.2,26.1,30.61,South,184,1.0,3.0,78,0.00,,,0.00,Wunderground v.1.15,2013-01-19 06:45:00,
2013-01-19 01:50:00,31.7,26.2,30.61,SSW,192,0.0,3.0,80,0.00,,,0.00,Wunderground v.1.15,2013-01-19 06:50:00,
2013-01-19 01:55:00,31.0,26.1,30.60,SSW,192,0.0,3.0,82,0.00,,,0.00,Wunderground v.1.15,2013-01-19 06:55:00,
2013-01-19 02:00:00,30.3,26.0,30.60,South,176,0.0,3.0,84,0.00,,,0.00,Wunderground v.1.15,2013-01-19 07:00:00,
2013-01-19 02:05:00,29.8,25.8,30.61,SSW,203,0.0,3.0,85,0.00,,,0.00,Wunderground v.1.15,2013-01-19 07:05:00,
2013-01-19 02:15:00,29.8,25.6,30.61,SSE,165,0.0,1.0,84,0.00,,,0.00,Wunderground v.1.15,2013-01-19 07:15:00,
2013-01-19 02:20:00,30.3,25.8,30.61,SSW,202,0.0,1.0,83,0.00,,,0.00,Wunderground v.1.15,2013-01-19 07:20:00,
2013-01-19 02:25:00,31.0,25.6,30.61,SSW,210,0.0,1.0,80,0.00,,,0.00,Wunderground v.1.15,2013-01-19 07:25:00,
2013-01-19 02:30:00,31.7,25.9,30.61,WNW,283,0.0,1.0,79,0.00,,,0.00,Wunderground v.1.15,2013-01-19 07:30:00,
2013-01-19 02:35:00,32.3,25.9,30.61,SSE,159,0.0,1.0,77,0.00,,,0.00,Wunderground v.1.15,2013-01-19 07:35:00,
2013-01-19 02:45:00,32.9,25.8,30.60,South,175,1.0,2.0,75,0.00,,,0.00,Wunderground v.1.15,2013-01-19 07:45:00,
2013-01-19 02:50:00,33.2,25.8,30.60,South,176,1.0,5.0,74,0.00,,,0.00,Wunderground v.1.15,2013-01-19 07:50:00,
2013-01-19 02:55:00,33.5,26.1,30.60,SSE,150,1.0,5.0,74,0.00,,,0.00,Wunderground v.1.15,2013-01-19 07:55:00,
2013-01-19 03:00:00,33.4,26.0,30.60,SW,221,1.0,1.0,74,0.00,,,0.00,Wunderground v.1.15,2013-01-19 08:00:00,
2013-01-19 03:05:00,33.5,25.8,30.60,South,190,2.0,2.0,73,0.00,,,0.00,Wunderground v.1.15,2013-01-19 08:05:00,
2013-01-19 03:15:00,33.2,25.8,30.60,South,176,1.0,11.0,74,0.00,,,0.00,Wunderground v.1.15,2013-01-19 08:15:00,
2013-01-19 03:20:00,33.0,25.6,30.60,SSW,195,1.0,11.0,74,0.00,,,0.00,Wunderground v.1.15,2013-01-19 08:20:00,
2013-01-19 03:25:00,32.7,25.6,30.60,SSW,205,0.0,11.0,75,0.00,,,0.00,Wunderground v.1.15,2013-01-19 08:25:00,
2013-01-19 03:30:00,32.1,25.4,30.60,South,180,0.0,11.0,76,0.00,,,0.00,Wunderground v.1.15,2013-01-19 08:30:00,
2013-01-19 03:35:00,31.7,25.3,30.60,SSW,196,1.0,11.0,77,0.00,,,0.00,Wunderground v.1.15,2013-01-19 08:35:00,
2013-01-19 03:40:00,31.4,25.6,30.60,SSW,195,1.0,1.0,79,0.00,,,0.00,Wunderground v.1.15,2013-01-19 08:40:00,
2013-01-19 03:50:00,31.4,25.6,30.60,SSW,201,0.0,11.0,79,0.00,,,0.00,Wunderground v.1.15,2013-01-19 08:50:00,
2013-01-19 03:55:00,31.7,25.6,30.60,SSW,198,0.0,11.0,78,0.00,,,0.00,Wunderground v.1.15,2013-01-19 08:55:00,
2013-01-19 04:00:00,31.9,25.5,30.59,South,180,0.0,11.0,77,0.00,,,0.00,Wunderground v.1.15,2013-01-19 09:00:00,
2013-01-19 04:05:00,32.0,25.6,30.60,SSE,157,0.0,11.0,77,0.00,,,0.00,Wunderground v.1.15,2013-01-19 09:05:00,
2013-01-19 04:15:00,31.9,25.8,30.59,South,183,0.0,1.0,78,0.00,,,0.00,Wunderground v.1.15,2013-01-19 09:15:00,
2013-01-19 04:20:00,31.8,25.7,30.59,South,182,0.0,1.0,78,0.00,,,0.00,Wunderground v.1.15,2013-01-19 09:20:00,
2013-01-19 04:30:00,31.8,25.7,30.59,South,174,2.0,5.0,78,0.00,,,0.00,Wunderground v.1.15,2013-01-19 09:30:00,
2013-01-19 04:35:00,31.9,25.8,30.59,South,183,2.0,5.0,78,0.00,,,0.00,Wunderground v.1.15,2013-01-19 09:35:00,
2013-01-19 04:40:00,32.0,25.6,30.60,South,172,1.0,1.0,77,0.00,,,0.00,Wunderground v.1.15,2013-01-19 09:40:00,
2013-01-19 04:50:00,32.0,25.6,30.59,South,171,1.0,1.0,77,0.00,,,0.00,Wunderground v.1.15,2013-01-19 09:50:00,
2013-01-19 05:00:00,32.2,25.5,30.59,South,186,1.0,2.0,76,0.00,,,0.00,Wunderground v.1.15,2013-01-19 10:00:00,
2013-01-19 05:05:00,32.3,25.6,30.59,SSE,159,2.0,2.0,76,0.00,,,0.00,Wunderground v.1.15,2013-01-19 10:05:00,
2013-01-19 05:15:00,32.3,25.6,30.59,South,184,2.0,7.0,76,0.00,,,0.00,Wunderground v.1.15,2013-01-19 10:15:00,
2013-01-19 05:25:00,32.2,25.5,30.58,NNE,32,3.0,3.0,76,0.00,,,0.00,Wunderground v.1.15,2013-01-19 10:25:00,
2013-01-19 05:30:00,32.0,25.3,30.59,South,177,3.0,3.0,76,0.00,,,0.00,Wunderground v.1.15,2013-01-19 10:30:00,
2013-01-19 05:35:00,31.8,25.1,30.59,South,170,2.0,7.0,76,0.00,,,0.00,Wunderground v.1.15,2013-01-19 10:35:00,
2013-01-19 05:40:00,31.6,25.2,30.58,SSE,159,2.0,2.0,77,0.00,,,0.00,Wunderground v.1.15,2013-01-19 10:40:00,
2013-01-19 05:45:00,31.5,24.8,30.59,SSE,167,2.0,7.0,76,0.00,,,0.00,Wunderground v.1.15,2013-01-19 10:45:00,
2013-01-19 05:55:00,31.4,24.7,30.58,SE,146,1.0,6.0,76,0.00,,,0.00,Wunderground v.1.15,2013-01-19 10:55:00,
2013-01-19 06:00:00,31.3,24.3,30.58,SSE,163,2.0,7.0,75,0.00,,,0.00,Wunderground v.1.15,2013-01-19 11:00:00,
2013-01-19 06:05:00,31.2,24.2,30.58,South,178,2.0,7.0,75,0.00,,,0.00,Wunderground v.1.15,2013-01-19 11:05:00,
2013-01-19 07:50:00,30.3,22.7,30.58,South,185,0.0,4.0,73,0.00,,,0.00,Wunderground v.1.15,2013-01-19 12:50:00,
2013-01-19 07:55:00,30.1,22.8,30.58,South,186,0.0,4.0,74,0.00,,,0.00,Wunderground v.1.15,2013-01-19 12:55:00,
2013-01-19 08:00:00,30.0,22.7,30.58,SE,134,0.0,4.0,74,0.00,,,0.00,Wunderground v.1.15,2013-01-19 13:00:00,
2013-01-19 08:05:00,29.9,22.9,30.58,SE,134,0.0,4.0,75,0.00,,,0.00,Wunderground v.1.15,2013-01-19 13:05:00,
2013-01-19 08:10:00,29.8,22.8,30.58,SE,134,0.0,0.0,75,0.00,,,0.00,Wunderground v.1.15,2013-01-19 13:10:00,
2013-01-19 08:15:00,29.8,22.5,30.58,South,182,0.0,3.0,74,0.00,,,0.00,Wunderground v.1.15,2013-01-19 13:15:00,
2013-01-19 08:20:00,29.7,22.4,30.59,South,178,0.0,3.0,74,0.00,,,0.00,Wunderground v.1.15,2013-01-19 13:20:00,
2013-01-19 08:25:00,29.7,23.1,30.59,SSW,211,0.0,3.0,76,0.00,,,0.00,Wunderground v.1.15,2013-01-19 13:25:00,
2013-01-19 08:30:00,29.6,23.0,30.58,SSW,211,0.0,3.0,76,0.00,,,0.00,Wunderground v.1.15,2013-01-19 13:30:00,
2013-01-19 08:35:00,29.5,22.9,30.58,SSW,211,0.0,3.0,76,0.00,,,0.00,Wunderground v.1.15,2013-01-19 13:35:00,
2013-01-19 08:40:00,29.5,23.5,30.58,SSW,211,0.0,3.0,78,0.00,,,0.00,Wunderground v.1.15,2013-01-19 13:40:00,
2013-01-19 08:50:00,29.2,23.8,30.58,SSW,209,0.0,3.0,80,0.00,,,0.00,Wunderground v.1.15,2013-01-19 13:50:00,
2013-01-19 08:55:00,29.0,23.9,30.58,SSW,209,0.0,3.0,81,0.00,,,0.00,Wunderground v.1.15,2013-01-19 13:55:00,
2013-01-19 09:00:00,28.9,23.8,30.59,SSW,209,0.0,3.0,81,0.00,,,0.00,Wunderground v.1.15,2013-01-19 14:00:00,
2013-01-19 09:05:00,28.8,24.0,30.59,SSW,209,0.0,3.0,82,0.00,,,0.00,Wunderground v.1.15,2013-01-19 14:05:00,
2013-01-19 09:15:00,28.7,24.5,30.59,SSW,209,0.0,0.0,84,0.00,,,0.00,Wunderground v.1.15,2013-01-19 14:15:00,
2013-01-19 09:20:00,28.7,24.5,30.59,SSE,165,0.0,0.0,84,0.00,,,0.00,Wunderground v.1.15,2013-01-19 14:20:00,
2013-01-19 09:25:00,28.8,24.6,30.59,South,190,0.0,0.0,84,0.00,,,0.00,Wunderground v.1.15,2013-01-19 14:25:00,
2013-01-19 09:30:00,29.1,24.6,30.59,SSE,167,0.0,0.0,83,0.00,,,0.00,Wunderground v.1.15,2013-01-19 14:30:00,
2013-01-19 09:35:00,29.7,25.2,30.59,SSE,167,0.0,0.0,83,0.00,,,0.00,Wunderground v.1.15,2013-01-19 14:35:00,
2013-01-19 09:40:00,30.1,25.3,30.59,SSE,167,0.0,0.0,82,0.00,,,0.00,Wunderground v.1.15,2013-01-19 14:40:00,
2013-01-19 09:45:00,30.4,25.6,30.59,SSE,167,0.0,0.0,82,0.00,,,0.00,Wunderground v.1.15,2013-01-19 14:45:00,
2013-01-19 09:50:00,30.7,25.6,30.59,SSE,167,0.0,0.0,81,0.00,,,0.00,Wunderground v.1.15,2013-01-19 14:50:00,
2013-01-19 10:00:00,31.0,25.6,30.59,SSE,167,0.0,0.0,80,0.00,,,0.00,Wunderground v.1.15,2013-01-19 15:00:00,
2013-01-19 10:05:00,31.1,25.3,30.59,SW,216,0.0,0.0,79,0.00,,,0.00,Wunderground v.1.15,2013-01-19 15:05:00,
2013-01-19 10:15:00,32.1,25.7,30.59,SSW,202,0.0,1.0,77,0.00,,,0.00,Wunderground v.1.15,2013-01-19 15:15:00,
2013-01-19 10:20:00,32.6,26.5,30.59,SSW,193,1.0,2.0,78,0.00,,,0.00,Wunderground v.1.15,2013-01-19 15:20:00,
2013-01-19 10:25:00,33.0,27.2,30.59,SSW,200,1.0,2.0,79,0.00,,,0.00,Wunderground v.1.15,2013-01-19 15:25:00,
2013-01-19 10:30:00,33.5,27.4,30.59,SSW,196,0.0,1.0,78,0.00,,,0.00,Wunderground v.1.15,2013-01-19 15:30:00,
2013-01-19 10:35:00,33.9,27.8,30.59,SSW,196,0.0,1.0,78,0.00,,,0.00,Wunderground v.1.15,2013-01-19 15:35:00,
2013-01-19 10:40:00,34.4,27.9,30.58,SW,215,0.0,1.0,77,0.00,,,0.00,Wunderground v.1.15,2013-01-19 15:40:00,
2013-01-19 10:45:00,34.8,28.3,30.58,SW,215,0.0,1.0,77,0.00,,,0.00,Wunderground v.1.15,2013-01-19 15:45:00,
2013-01-19 10:50:00,35.4,28.9,30.58,SW,215,0.0,1.0,77,0.00,,,0.00,Wunderground v.1.15,2013-01-19 15:50:00,
2013-01-19 10:55:00,36.2,29.0,30.58,SSW,203,0.0,1.0,75,0.00,,,0.00,Wunderground v.1.15,2013-01-19 15:55:00,
2013-01-19 11:00:00,36.6,28.8,30.57,SSW,204,0.0,1.0,73,0.00,,,0.00,Wunderground v.1.15,2013-01-19 16:00:00,
2013-01-19 11:05:00,37.0,28.8,30.57,SSW,204,0.0,1.0,72,0.00,,,0.00,Wunderground v.1.15,2013-01-19 16:05:00,
2013-01-19 11:15:00,38.4,30.5,30.56,SW,234,1.0,1.0,73,0.00,,,0.00,Wunderground v.1.15,2013-01-19 16:15:00,
2013-01-19 11:20:00,39.3,30.3,30.56,SW,214,1.0,1.0,70,0.00,,,0.00,Wunderground v.1.15,2013-01-19 16:20:00,
2013-01-19 11:25:00,40.4,30.7,30.55,SSW,206,0.0,1.0,68,0.00,,,0.00,Wunderground v.1.15,2013-01-19 16:25:00,
2013-01-19 11:30:00,40.5,30.4,30.55,SSW,206,0.0,0.0,67,0.00,,,0.00,Wunderground v.1.15,2013-01-19 16:30:00,
2013-01-19 11:40:00,40.7,30.6,30.54,SW,219,0.0,0.0,67,0.00,,,0.00,Wunderground v.1.15,2013-01-19 16:40:00,
2013-01-19 11:45:00,41.9,31.4,30.53,SW,217,0.0,0.0,66,0.00,,,0.00,Wunderground v.1.15,2013-01-19 16:45:00,
2013-01-19 11:50:00,42.2,30.9,30.53,SSW,198,0.0,0.0,64,0.00,,,0.00,Wunderground v.1.15,2013-01-19 16:50:00,
2013-01-19 12:00:00,42.7,31.7,30.52,SSW,194,0.0,0.0,65,0.00,,,0.00,Wunderground v.1.15,2013-01-19 17:00:00,
2013-01-19 12:05:00,42.7,28.9,30.52,SSW,200,0.0,3.0,58,0.00,,,0.00,Wunderground v.1.15,2013-01-19 17:05:00,
2013-01-19 12:15:00,44.0,29.3,30.51,SSW,206,1.0,2.0,56,0.00,,,0.00,Wunderground v.1.15,2013-01-19 17:15:00,
2013-01-19 12:20:00,44.3,27.3,30.50,WSW,239,1.0,1.0,51,0.00,,,0.00,Wunderground v.1.15,2013-01-19 17:20:00,
2013-01-19 12:25:00,44.8,29.2,30.50,SSW,198,1.0,5.0,54,0.00,,,0.01,Wunderground v.1.15,2013-01-19 17:25:00,
2013-01-19 12:35:00,45.3,28.2,30.49,SW,219,1.0,5.0,51,0.00,,,0.01,Wunderground v.1.15,2013-01-19 17:35:00,
2013-01-19 12:40:00,46.3,28.7,30.48,WSW,253,0.0,5.0,50,0.00,,,0.01,Wunderground v.1.15,2013-01-19 17:40:00,
2013-01-19 12:45:00,45.9,27.8,30.48,SSW,205,0.0,5.0,49,0.00,,,0.01,Wunderground v.1.15,2013-01-19 17:45:00,
2013-01-19 12:50:00,46.1,29.0,30.48,NNW,329,0.0,5.0,51,0.00,,,0.01,Wunderground v.1.15,2013-01-19 17:50:00,
2013-01-19 12:55:00,46.8,29.1,30.47,SW,220,0.0,5.0,50,0.00,,,0.01,Wunderground v.1.15,2013-01-19 17:55:00,
2013-01-19 13:00:00,46.5,30.3,30.47,SSW,203,1.0,1.0,53,0.00,,,0.01,Wunderground v.1.15,2013-01-19 18:00:00,
2013-01-19 13:05:00,46.7,28.5,30.46,SSW,211,1.0,1.0,49,0.00,,,0.01,Wunderground v.1.15,2013-01-19 18:05:00,
2013-01-19 13:15:00,49.6,28.6,30.46,South,184,1.0,2.0,44,0.00,,,0.01,Wunderground v.1.15,2013-01-19 18:15:00,
2013-01-19 13:20:00,50.7,28.4,30.45,SW,227,1.0,1.0,42,0.00,,,0.01,Wunderground v.1.15,2013-01-19 18:20:00,
2013-01-19 13:25:00,51.0,30.4,30.45,SSW,200,1.0,5.0,45,0.00,,,0.01,Wunderground v.1.15,2013-01-19 18:25:00,
2013-01-19 13:30:00,51.3,27.2,30.45,SW,217,0.0,5.0,39,0.00,,,0.01,Wunderground v.1.15,2013-01-19 18:30:00,
2013-01-19 13:40:00,50.6,31.6,30.44,South,189,1.0,5.0,48,0.00,,,0.01,Wunderground v.1.15,2013-01-19 18:40:00,
2013-01-19 13:50:00,51.6,26.8,30.44,South,188,1.0,5.0,38,0.00,,,0.01,Wunderground v.1.15,2013-01-19 18:50:00,
2013-01-19 13:55:00,51.7,27.5,30.44,South,185,1.0,5.0,39,0.00,,,0.01,Wunderground v.1.15,2013-01-19 18:55:00,
2013-01-19 14:00:00,52.1,29.1,30.43,SSW,192,1.0,1.0,41,0.00,,,0.01,Wunderground v.1.15,2013-01-19 19:00:00,
2013-01-19 14:05:00,52.8,25.9,30.43,South,186,1.0,1.0,35,0.00,,,0.01,Wunderground v.1.15,2013-01-19 19:05:00,
2013-01-19 14:20:00,53.3,24.9,30.41,SSW,205,1.0,1.0,33,0.00,,,0.02,Wunderground v.1.15,2013-01-19 19:20:00,
2013-01-19 14:25:00,53.5,27.8,30.41,SSW,192,2.0,3.0,37,0.00,,,0.02,Wunderground v.1.15,2013-01-19 19:25:00,
2013-01-19 14:45:00,53.4,25.0,30.40,SSW,207,3.0,7.0,33,0.00,,,0.02,Wunderground v.1.15,2013-01-19 19:45:00,
2013-01-19 14:55:00,54.3,25.0,30.39,SW,227,3.0,3.0,32,0.00,,,0.02,Wunderground v.1.15,2013-01-19 19:55:00,
2013-01-19 15:00:00,53.4,25.0,30.39,SSW,206,2.0,2.0,33,0.00,,,0.02,Wunderground v.1.15,2013-01-19 20:00:00,
2013-01-19 15:10:00,53.8,26.1,30.39,SSW,198,1.0,1.0,34,0.00,,,0.02,Wunderground v.1.15,2013-01-19 20:10:00,
2013-01-19 15:15:00,54.4,27.3,30.38,SSW,195,1.0,6.0,35,0.00,,,0.02,Wunderground v.1.15,2013-01-19 20:15:00,
2013-01-19 15:20:00,54.9,27.0,30.38,SSW,200,2.0,6.0,34,0.00,,,0.02,Wunderground v.1.15,2013-01-19 20:20:00,
2013-01-19 15:25:00,54.4,27.3,30.38,South,186,2.0,6.0,35,0.00,,,0.02,Wunderground v.1.15,2013-01-19 20:25:00,
2013-01-19 15:35:00,54.8,28.3,30.38,SSW,198,2.0,5.0,36,0.00,,,0.02,Wunderground v.1.15,2013-01-19 20:35:00,
2013-01-19 15:40:00,54.6,28.2,30.38,South,185,3.0,3.0,36,0.00,,,0.02,Wunderground v.1.15,2013-01-19 20:40:00,
2013-01-19 15:45:00,54.8,25.5,30.37,SSE,149,4.0,4.0,32,0.00,,,0.02,Wunderground v.1.15,2013-01-19 20:45:00,
2013-01-19 15:50:00,54.5,26.0,30.37,SSW,197,3.0,3.0,33,0.00,,,0.02,Wunderground v.1.15,2013-01-19 20:50:00,
2013-01-19 15:55:00,54.5,28.1,30.37,South,184,2.0,6.0,36,0.00,,,0.02,Wunderground v.1.15,2013-01-19 20:55:00,
2013-01-19 16:05:00,55.5,26.8,30.37,SSE,163,1.0,6.0,33,0.00,,,0.02,Wunderground v.1.15,2013-01-19 21:05:00,
2013-01-19 16:15:00,55.6,28.4,30.36,South,187,2.0,7.0,35,0.00,,,0.02,Wunderground v.1.15,2013-01-19 21:15:00,
2013-01-19 16:20:00,55.7,27.0,30.36,South,191,2.0,2.0,33,0.00,,,0.02,Wunderground v.1.15,2013-01-19 21:20:00,
2013-01-19 16:30:00,55.2,25.8,30.35,SSW,194,2.0,7.0,32,0.00,,,0.02,Wunderground v.1.15,2013-01-19 21:30:00,
2013-01-19 16:35:00,55.0,27.1,30.35,South,188,3.0,10.0,34,0.00,,,0.02,Wunderground v.1.15,2013-01-19 21:35:00,
2013-01-19 16:40:00,54.7,26.1,30.35,South,183,4.0,4.0,33,0.00,,,0.02,Wunderground v.1.15,2013-01-19 21:40:00,
2013-01-19 16:50:00,53.8,25.3,30.35,South,190,4.0,7.0,33,0.00,,,0.02,Wunderground v.1.15,2013-01-19 21:50:00,
2013-01-19 17:00:00,53.5,26.5,30.35,South,179,2.0,2.0,35,0.00,,,0.02,Wunderground v.1.15,2013-01-19 22:00:00,
2013-01-19 17:05:00,53.3,27.7,30.35,South,172,2.0,3.0,37,0.00,,,0.02,Wunderground v.1.15,2013-01-19 22:05:00,
2013-01-19 17:10:00,52.8,27.9,30.35,South,182,1.0,4.0,38,0.00,,,0.02,Wunderground v.1.15,2013-01-19 22:10:00,
2013-01-19 17:15:00,52.2,28.6,30.35,South,191,1.0,9.0,40,0.00,,,0.02,Wunderground v.1.15,2013-01-19 22:15:00,
2013-01-19 17:25:00,51.1,27.6,30.35,SSE,165,2.0,2.0,40,0.00,,,0.02,Wunderground v.1.15,2013-01-19 22:25:00,
2013-01-19 17:30:00,50.4,28.1,30.35,South,184,1.0,1.0,42,0.00,,,0.02,Wunderground v.1.15,2013-01-19 22:30:00,
2013-01-19 17:35:00,49.7,28.1,30.35,SSW,196,1.0,9.0,43,0.00,,,0.02,Wunderground v.1.15,2013-01-19 22:35:00,
2013-01-19 17:40:00,49.0,28.0,30.35,South,188,1.0,9.0,44,0.00,,,0.02,Wunderground v.1.15,2013-01-19 22:40:00,
2013-01-19 17:50:00,47.8,27.5,30.35,SSW,204,1.0,9.0,45,0.00,,,0.02,Wunderground v.1.15,2013-01-19 22:50:00,
2013-01-19 17:55:00,47.2,28.0,30.35,South,172,0.0,9.0,47,0.00,,,0.02,Wunderground v.1.15,2013-01-19 22:55:00,
2013-01-19 18:05:00,46.3,27.7,30.35,South,173,0.0,9.0,48,0.00,,,0.02,Wunderground v.1.15,2013-01-19 23:05:00,
2013-01-19 18:15:00,45.8,27.7,30.36,South,186,0.0,6.0,49,0.00,,,0.02,Wunderground v.1.15,2013-01-19 23:15:00,
2013-01-19 18:25:00,45.2,27.6,30.36,South,189,1.0,6.0,50,0.00,,,0.02,Wunderground v.1.15,2013-01-19 23:25:00,
2013-01-19 18:35:00,44.6,28.0,30.36,SSW,192,1.0,5.0,52,0.00,,,0.02,Wunderground v.1.15,2013-01-19 23:35:00,
2013-01-19 18:45:00,43.9,29.2,30.36,South,185,2.0,6.0,56,0.00,,,0.02,Wunderground v.1.15,2013-01-19 23:45:00,
2013-01-19 19:00:00,43.1,28.5,30.36,SSE,165,1.0,1.0,56,0.00,,,0.02,Wunderground v.1.15,2013-01-20 00:00:00,
2013-01-19 19:05:00,42.9,28.7,30.37,South,170,0.0,1.0,57,0.00,,,0.02,Wunderground v.1.15,2013-01-20 00:05:00,
2013-01-19 19:15:00,42.5,28.8,30.37,SSE,159,1.0,1.0,58,0.00,,,0.02,Wunderground v.1.15,2013-01-20 00:15:00,
2013-01-19 19:20:00,42.3,29.0,30.37,SSE,165,1.0,1.0,59,0.00,,,0.02,Wunderground v.1.15,2013-01-20 00:20:00,
2013-01-19 19:25:00,42.0,28.7,30.37,SSE,162,0.0,5.0,59,0.00,,,0.02,Wunderground v.1.15,2013-01-20 00:25:00,
2013-01-19 19:35:00,41.8,28.9,30.37,SSE,164,0.0,5.0,60,0.00,,,0.02,Wunderground v.1.15,2013-01-20 00:35:00,
2013-01-19 19:40:00,41.7,28.8,30.37,SSE,164,0.0,5.0,60,0.00,,,0.02,Wunderground v.1.15,2013-01-20 00:40:00,
2013-01-19 19:50:00,41.7,28.8,30.36,SSE,163,0.0,5.0,60,0.00,,,0.02,Wunderground v.1.15,2013-01-20 00:50:00,
2013-01-19 19:55:00,41.5,29.0,30.36,SSE,163,0.0,5.0,61,0.00,,,0.02,Wunderground v.1.15,2013-01-20 00:55:00,
2013-01-19 20:00:00,41.3,28.0,30.36,SSE,164,0.0,5.0,59,0.00,,,0.02,Wunderground v.1.15,2013-01-20 01:00:00,
2013-01-19 20:05:00,42.3,27.3,30.36,South,183,0.0,5.0,55,0.00,,,0.02,Wunderground v.1.15,2013-01-20 01:05:00,
2013-01-19 20:15:00,43.8,27.3,30.36,SSW,198,0.0,4.0,52,0.00,,,0.02,Wunderground v.1.15,2013-01-20 01:15:00,
2013-01-19 20:20:00,43.9,27.4,30.36,SSW,198,0.0,4.0,52,0.00,,,0.02,Wunderground v.1.15,2013-01-20 01:20:00,
2013-01-19 20:25:00,43.9,26.9,30.36,SSE,166,0.0,4.0,51,0.00,,,0.02,Wunderground v.1.15,2013-01-20 01:25:00,
2013-01-19 20:30:00,43.8,28.2,30.36,South,171,0.0,4.0,54,0.00,,,0.02,Wunderground v.1.15,2013-01-20 01:30:00,
2013-01-19 20:40:00,43.6,26.6,30.35,SSE,168,0.0,4.0,51,0.00,,,0.02,Wunderground v.1.15,2013-01-20 01:40:00,
2013-01-19 20:50:00,42.4,28.2,30.35,SW,223,0.0,4.0,57,0.00,,,0.02,Wunderground v.1.15,2013-01-20 01:50:00,
2013-01-19 20:55:00,41.3,28.4,30.35,SSW,205,0.0,4.0,60,0.00,,,0.02,Wunderground v.1.15,2013-01-20 01:55:00,
2013-01-19 21:00:00,40.7,28.7,30.35,SSW,205,0.0,4.0,62,0.00,,,0.02,Wunderground v.1.15,2013-01-20 02:00:00,
2013-01-19 21:05:00,39.9,28.3,30.35,SSW,205,0.0,4.0,63,0.00,,,0.02,Wunderground v.1.15,2013-01-20 02:05:00,
2013-01-19 21:15:00,38.8,28.0,30.35,SSW,207,0.0,2.0,65,0.00,,,0.02,Wunderground v.1.15,2013-01-20 02:15:00,
2013-01-19 21:30:00,38.1,27.7,30.35,South,188,0.0,0.0,66,0.00,,,0.02,Wunderground v.1.15,2013-01-20 02:30:00,
2013-01-19 21:35:00,38.1,27.7,30.35,South,188,0.0,0.0,66,0.00,,,0.02,Wunderground v.1.15,2013-01-20 02:35:00,
2013-01-19 21:40:00,38.0,27.6,30.35,South,188,0.0,0.0,66,0.00,,,0.02,Wunderground v.1.15,2013-01-20 02:40:00,
2013-01-19 21:45:00,37.9,27.9,30.34,South,188,0.0,0.0,67,0.00,,,0.02,Wunderground v.1.15,2013-01-20 02:45:00,
2013-01-19 21:55:00,37.5,27.5,30.34,South,188,0.0,0.0,67,0.00,,,0.02,Wunderground v.1.15,2013-01-20 02:55:00,
2013-01-19 22:00:00,37.5,27.5,30.34,South,188,0.0,0.0,67,0.00,,,0.02,Wunderground v.1.15,2013-01-20 03:00:00,
2013-01-19 22:05:00,37.6,27.3,30.34,South,188,0.0,0.0,66,0.00,,,0.02,Wunderground v.1.15,2013-01-20 03:05:00,
2013-01-19 22:15:00,38.2,27.1,30.34,South,188,0.0,0.0,64,0.00,,,0.02,Wunderground v.1.15,2013-01-20 03:15:00,
2013-01-19 22:20:00,38.4,27.3,30.34,South,188,0.0,0.0,64,0.00,,,0.02,Wunderground v.1.15,2013-01-20 03:20:00,
2013-01-19 22:25:00,38.3,28.3,30.33,South,188,0.0,0.0,67,0.00,,,0.02,Wunderground v.1.15,2013-01-20 03:25:00,
2013-01-19 22:30:00,38.0,27.6,30.33,South,188,0.0,0.0,66,0.00,,,0.02,Wunderground v.1.15,2013-01-20 03:30:00,
2013-01-19 22:40:00,38.0,27.3,30.33,South,188,0.0,0.0,65,0.00,,,0.02,Wunderground v.1.15,2013-01-20 03:40:00,
2013-01-19 22:50:00,38.4,26.5,30.33,South,188,0.0,0.0,62,0.00,,,0.02,Wunderground v.1.15,2013-01-20 03:50:00,
2013-01-19 23:00:00,37.8,27.1,30.33,South,186,0.0,0.0,65,0.00,,,0.02,Wunderground v.1.15,2013-01-20 04:00:00,
2013-01-19 23:05:00,37.3,27.7,30.32,South,186,0.0,0.0,68,0.00,,,0.02,Wunderground v.1.15,2013-01-20 04:05:00,
2013-01-19 23:15:00,37.7,26.2,30.32,South,186,0.0,1.0,63,0.00,,,0.02,Wunderground v.1.15,2013-01-20 04:15:00,
2013-01-19 23:25:00,37.8,26.3,30.32,South,186,0.0,1.0,63,0.00,,,0.02,Wunderground v.1.15,2013-01-20 04:25:00,
2013-01-19 23:30:00,37.8,25.9,30.32,South,186,0.0,1.0,62,0.00,,,0.02,Wunderground v.1.15,2013-01-20 04:30:00,
2013-01-19 23:40:00,37.7,25.5,30.31,South,186,0.0,1.0,61,0.00,,,0.02,Wunderground v.1.15,2013-01-20 04:40:00,
2013-01-19 23:50:00,37.8,25.5,30.32,South,186,0.0,1.0,61,0.00,,,0.02,Wunderground v.1.15,2013-01-20 04:50:00,